This is the latest recevied weather packets stored in our database for station/object WX4SGA. If no packets are shown the sender has not sent any weather packets the latest 10 day(s).
| Time | Temp. | Humidity | Pressure | Rain* | Wind** | Luminosity | Snow |
|---|---|---|---|---|---|---|---|
| 1788368097 | 31.67° C | 66% | 1019 hPa | 0 mm | - | 820 W/m² | - |
| 1788367792 | 31.67° C | 67% | 1019 hPa | 0 mm | - | 809 W/m² | - |
| 1788367488 | 31.11° C | 70% | 1019 hPa | 0 mm | - | 819 W/m² | - |
| 1788367186 | 31.67° C | 69% | 1019 hPa | 0 mm | - | 156 W/m² | - |
| 1788366882 | 31.67° C | 69% | 1019 hPa | 0 mm | - | 856 W/m² | - |
| 1788366579 | 31.67° C | 71% | 1019.3 hPa | 0 mm | - | 839 W/m² | - |
| 1788366274 | 30.56° C | 72% | 1019.3 hPa | 0 mm | - | 213 W/m² | - |
| 1788365969 | 31.67° C | 71% | 1019.3 hPa | 0 mm | - | 887 W/m² | - |
| 1788365664 | 31.67° C | 68% | 1019 hPa | 0 mm | - | 828 W/m² | - |
| 1788365360 | 31.67° C | 72% | 1019.3 hPa | 0 mm | - | 799 W/m² | - |
| 1788365056 | 31.67° C | 69% | 1019.3 hPa | 0 mm | - | 741 W/m² | - |
| 1788364753 | 31.11° C | 70% | 1019.3 hPa | 0 mm | - | 753 W/m² | - |
| 1788364449 | 31.11° C | 70% | 1019.3 hPa | 0 mm | - | 712 W/m² | - |
| 1788364143 | 30.56° C | 72% | 1019.6 hPa | 0 mm | - | 723 W/m² | - |
| 1788363838 | 30.56° C | 76% | 1019.6 hPa | 0 mm | - | 779 W/m² | - |
| 1788363537 | 31.67° C | 70% | 1019.6 hPa | 0 mm | - | 708 W/m² | - |
| 1788363251 | 30.56° C | 71% | 1019.6 hPa | 0 mm | - | 670 W/m² | - |
| 1788362932 | 30.56° C | 70% | 1019.3 hPa | 0 mm | - | 664 W/m² | - |
| 1788362628 | 30.56° C | 73% | 1019.3 hPa | 0 mm | - | 640 W/m² | - |
| 1788362323 | 30.56° C | 72% | 1019.3 hPa | 0 mm | - | 623 W/m² | - |
| 1788362012 | 31.11° C | 72% | 1019.6 hPa | 0 mm | - | 609 W/m² | - |
| 1788361707 | 31.11° C | 74% | 1019.3 hPa | 0 mm | - | 598 W/m² | - |
| 1788361404 | 31.11° C | 71% | 1019.6 hPa | 0 mm | - | 587 W/m² | - |
| 1788361103 | 30° C | 75% | 1019.3 hPa | 0 mm | - | 611 W/m² | - |
| 1788360798 | 30° C | 78% | 1019.3 hPa | 0 mm | - | 598 W/m² | - |
* Rain latest hour (hover to see other rain measurements)
** Current wind speed in m/s (hover to see current wind gust speed)